FW5929 Weather Reports


Display with metric or nautical units.
time (UTC)temp
F
wind
direction
speed
MPH
gust
MPH
rain 1hr
in
rain 24hr
in
rain mn
in
humidity
%
barometer
mb
20260509021348 50 90 4.0 8.0 0.00 0.04 0.00 85 1016.2
20260509020824 50 61 4.0 8.0 0.00 0.04 0.00 85 1016.3
20260509020324 50 78 4.0 7.0 0.00 0.04 0.00 85 1016.3
20260509015838 51 84 3.0 5.0 0.00 0.04 0.00 83 1016.3
20260509015333 52 93 3.0 7.0 0.00 0.04 0.00 83 1016.3
20260509014830 51 65 2.0 7.0 0.00 0.04 0.00 83 1016.3
20260509014326 51 58 3.0 9.0 0.00 0.04 0.00 84 1016.3
20260509013820 50 57 6.0 9.0 0.00 0.04 0.00 84 1016.3
20260509013317 50 69 4.0 6.0 0.00 0.04 0.00 85 1016.4
20260509012832 51 48 3.0 6.0 0.00 0.04 0.00 85 1016.5
20260509012350 50 81 3.0 9.0 0.00 0.04 0.00 85 1016.4
20260509011825 50 95 5.0 9.0 0.00 0.04 0.00 87 1016.4
20260509011323 49 63 4.0 6.0 0.00 0.04 0.00 87 1016.5
20260509010819 50 59 3.0 5.0 0.00 0.04 0.00 88 1016.5
20260509010336 49 71 3.0 5.0 0.00 0.04 0.00 90 1016.6
20260509005851 48 63 3.0 5.0 0.00 0.04 0.00 90 1016.6
20260509005329 48 58 3.0 4.0 0.00 0.04 0.00 92 1016.6
20260509004824 47 54 2.0 5.0 0.00 0.04 0.00 91 1016.7
20260509004343 47 69 2.0 5.0 0.00 0.04 0.00 92 1016.6
20260509003815 46 52 2.0 4.0 0.00 0.04 0.00 92 1016.6
20260509003333 45 65 1.0 3.0 0.00 0.04 0.00 92 1016.6
20260509002828 46 65 1.0 5.0 0.00 0.04 0.00 92 1016.6
20260509002325 46 74 2.0 4.0 0.00 0.04 0.00 92 1016.6
20260509001839 46 42 2.0 4.0 0.00 0.04 0.00 92 1016.6
20260509001335 46 37 3.0 4.0 0.00 0.04 0.00 92 1016.6
20260509000830 46 24 1.0 3.0 0.00 0.04 0.00 92 1016.6
20260509000328 46 24 1.0 3.0 0.00 0.04 0.00 92 1016.7
20260508235823 46 24 2.0 4.0 0.00 0.04 0.00 92 1016.7
20260508235347 0 0.0 0.0 0.00 0.04 0.00 1016.7
20260508234821 0 0.0 0.0 0.00 0.04 0.00 1016.8
20260508234320 0 0.0 0.0 0.00 0.04 0.00 1016.8
20260508233332 0 0.0 0.0 0.00 0.04 0.00 1016.8
20260508232849 0 0.0 0.0 0.00 0.04 0.00 1016.7
20260508232346 0 0.0 0.0 0.00 0.04 0.00 1016.8
20260508231832 0 0.0 0.0 0.00 0.04 0.00 1016.8
20260508231330 0 0.0 0.0 0.00 0.04 0.00 1016.8
20260508230827 0 0.0 0.0 0.00 0.04 0.00 1016.9
20260508225815 0 0.0 0.0 0.00 0.04 0.00 1016.9
20260508225329 0 0.0 0.0 0.00 0.04 0.00 1016.9
20260508224846 0 0.0 0.0 0.00 0.04 0.00 1016.9
20260508223822 47 24 0.0 0.0 0.00 0.04 0.00 89 1017.0
20260508223320 48 24 0.0 1.0 0.00 0.04 0.00 89 1016.9
20260508222835 48 24 1.0 2.0 0.00 0.04 0.00 88 1017.0
20260508222331 48 24 1.0 2.0 0.00 0.04 0.00 88 1016.9
20260508221825 49 24 1.0 2.0 0.00 0.04 0.00 87 1017.0
20260508221344 49 24 1.0 3.0 0.00 0.04 0.00 87 1016.9
20260508220819 49 24 2.0 3.0 0.00 0.04 0.00 87 1016.9
20260508220318 49 24 0.0 3.0 0.00 0.04 0.00 87 1016.9
20260508215834 49 24 2.0 3.0 0.00 0.04 0.01 87 1016.9
20260508215331 49 22 1.0 3.0 0.00 0.04 0.01 87 1016.9
20260508214826 49 19 2.0 3.0 0.00 0.04 0.01 87 1017.0
20260508214325 49 13 2.0 3.0 0.00 0.04 0.01 86 1017.0
20260508213822 50 9 2.0 2.0 0.00 0.04 0.01 86 1017.0
20260508213320 50 9 1.0 2.0 0.00 0.04 0.01 86 1017.0
20260508212819 50 9 2.0 3.0 0.00 0.04 0.01 85 1017.0
20260508212317 50 9 2.0 5.0 0.00 0.04 0.01 85 1017.0
20260508211833 50 350 2.0 6.0 0.00 0.04 0.01 85 1017.0
20260508211332 51 348 3.0 5.0 0.00 0.04 0.01 85 1016.9
20260508210827 50 9 1.0 3.0 0.00 0.04 0.01 86 1016.9
20260508210326 50 9 1.0 3.0 0.00 0.04 0.01 86 1016.8
20260508205821 50 9 1.0 3.0 0.00 0.04 0.01 86 1016.8
20260508205319 50 9 0.0 3.0 0.00 0.04 0.01 86 1016.8
20260508204816 50 9 1.0 3.0 0.00 0.04 0.01 85 1016.8
20260508204314 51 9 0.0 3.0 0.00 0.04 0.01 85 1016.8
20260508203831 51 9 2.0 3.0 0.00 0.04 0.01 85 1016.7
20260508203344 51 9 0.0 2.0 0.00 0.04 0.01 85 1016.7
20260508202840 51 9 0.0 2.0 0.00 0.04 0.01 85 1016.7
20260508202401 51 9 0.0 2.0 0.00 0.04 0.01 85 1016.6
20260508201855 52 9 0.0 2.0 0.00 0.04 0.01 85 1016.7
20260508201330 52 9 0.0 3.0 0.00 0.04 0.01 85 1016.6
20260508200825 52 9 1.0 3.0 0.00 0.04 0.01 85 1016.6
20260508200345 52 9 1.0 3.0 0.00 0.04 0.01 85 1016.6
20260508195820 52 9 1.0 3.0 0.00 0.04 0.01 84 1016.5
20260508195336 52 9 2.0 3.0 0.00 0.04 0.01 84 1016.5
20260508194831 53 9 1.0 2.0 0.00 0.04 0.01 84 1016.4
20260508194329 53 9 1.0 2.0 0.00 0.04 0.01 84 1016.4
20260508193826 54 9 2.0 2.0 0.00 0.04 0.01 83 1016.4
20260508193324 54 9 1.0 2.0 0.00 0.04 0.01 82 1016.3
20260508192841 54 9 0.0 2.0 0.00 0.04 0.01 81 1016.2
20260508192319 55 9 1.0 4.0 0.00 0.04 0.01 82 1016.1
20260508191836 55 9 1.0 5.0 0.00 0.04 0.01 81 1016.1
20260508191331 55 9 4.0 5.0 0.00 0.04 0.01 81 1016.0
20260508190828 56 355 3.0 5.0 0.00 0.04 0.01 81 1015.9
20260508190325 56 355 2.0 6.0 0.00 0.04 0.01 80 1015.9
20260508185820 56 9 5.0 6.0 0.00 0.04 0.01 80 1015.9
20260508185338 57 360 5.0 6.0 0.00 0.04 0.01 81 1015.9
20260508184833 57 349 5.0 5.0 0.00 0.04 0.01 81 1015.8
20260508184348 58 343 4.0 5.0 0.00 0.04 0.01 79 1015.8
20260508183824 58 67 2.0 4.0 0.00 0.04 0.01 75 1015.8
20260508183342 58 67 0.0 0.0 0.00 0.04 0.01 74 1015.7
20260508182818 59 67 0.0 2.0 0.00 0.04 0.01 73 1015.8
20260508182317 60 67 1.0 2.0 0.00 0.04 0.01 73 1015.8
20260508181831 60 67 0.0 1.0 0.00 0.04 0.01 73 1015.8
20260508181329 61 67 0.0 1.0 0.00 0.04 0.01 70 1015.7
20260508180824 62 67 0.0 2.0 0.00 0.04 0.01 66 1015.7
20260508180325 63 67 1.0 3.0 0.00 0.04 0.01 59 1015.6
20260508175819 62 67 2.0 3.0 0.00 0.04 0.01 61 1015.6
20260508175337 63 67 1.0 3.0 0.00 0.04 0.01 60 1015.5
20260508174831 63 67 1.0 4.0 0.00 0.04 0.01 62 1015.5
20260508174329 63 67 2.0 4.0 0.00 0.04 0.01 61 1015.5
20260508173825 63 67 1.0 4.0 0.00 0.04 0.01 61 1015.5
20260508173321 64 67 2.0 4.0 0.00 0.04 0.01 59 1015.5
20260508172817 64 71 2.0 3.0 0.00 0.04 0.01 60 1015.4
20260508172335 64 71 2.0 4.0 0.00 0.04 0.01 55 1015.4
20260508171829 64 71 2.0 6.0 0.00 0.04 0.01 57 1015.4
20260508171347 65 72 4.0 8.0 0.00 0.04 0.01 58 1015.4
20260508170844 65 116 2.0 8.0 0.00 0.04 0.01 55 1015.4
20260508170322 65 96 3.0 9.0 0.00 0.04 0.01 55 1015.3
20260508165819 65 96 5.0 8.0 0.00 0.04 0.01 54 1015.3
20260508165338 65 74 3.0 6.0 0.00 0.04 0.01 54 1015.3
20260508164816 66 73 1.0 7.0 0.00 0.04 0.01 57 1015.2
20260508164315 66 61 3.0 7.0 0.00 0.04 0.01 55 1015.2
20260508163829 66 38 3.0 7.0 0.00 0.04 0.01 58 1015.1
20260508163327 65 355 3.0 6.0 0.00 0.04 0.01 54 1015.1
20260508162820 65 355 3.0 5.0 0.00 0.04 0.01 55 1015.1
20260508162335 65 86 1.0 4.0 0.00 0.04 0.01 55 1015.1
20260508161849 65 88 2.0 4.0 0.00 0.04 0.01 55 1015.1
20260508161326 65 136 2.0 4.0 0.00 0.04 0.01 55 1015.1
20260508160822 65 193 2.0 6.0 0.00 0.04 0.01 56 1015.1
20260508160318 65 110 4.0 6.0 0.00 0.04 0.01 54 1015.1
20260508155814 66 38 1.0 3.0 0.00 0.04 0.01 56 1015.1
20260508155332 65 28 1.0 4.0 0.00 0.04 0.01 55 1015.1
20260508154848 65 327 2.0 4.0 0.00 0.04 0.01 56 1015.1
20260508154326 65 9 2.0 4.0 0.00 0.04 0.01 57 1015.1
20260508153819 65 12 2.0 4.0 0.00 0.04 0.01 58 1015.1
20260508153316 64 37 1.0 3.0 0.00 0.04 0.01 61 1015.2
20260508152832 64 130 1.0 2.0 0.00 0.04 0.01 60 1015.2
20260508152330 64 170 0.0 2.0 0.00 0.04 0.01 63 1015.2
20260508151825 64 171 1.0 3.0 0.00 0.04 0.01 63 1015.3
20260508151322 63 171 1.0 4.0 0.00 0.04 0.01 61 1015.3
20260508150837 63 125 2.0 3.0 0.00 0.04 0.01 60 1015.3
20260508150315 64 78 1.0 2.0 0.00 0.04 0.01 65 1015.3
20260508145830 63 78 0.0 4.0 0.00 0.04 0.01 62 1015.3
20260508145347 63 133 1.0 3.0 0.00 0.04 0.01 65 1015.3
20260508144821 63 134 2.0 8.0 0.00 0.04 0.01 66 1015.3
20260508144340 63 158 3.0 9.0 0.00 0.04 0.01 60 1015.3
20260508143814 64 111 5.0 8.0 0.00 0.04 0.01 60 1015.3
20260508143332 64 111 4.0 6.0 0.00 0.04 0.01 60 1015.3
20260508142827 64 165 2.0 7.0 0.00 0.04 0.01 61 1015.3
20260508142325 63 143 3.0 9.0 0.00 0.04 0.01 59 1015.4
20260508141821 64 100 5.0 9.0 0.00 0.04 0.01 60 1015.4
20260508141317 65 79 4.0 11.0 0.00 0.04 0.01 56 1015.5
20260508140834 65 45 8.0 11.0 0.00 0.04 0.01 60 1015.5
20260508140331 65 90 7.0 10.0 0.00 0.04 0.01 60 1015.6
20260508135842 65 138 5.0 10.0 0.00 0.04 0.01 59 1015.6
20260508135317 65 137 6.0 10.0 0.00 0.04 0.01 59 1015.7
20260508134834 65 135 4.0 9.0 0.00 0.04 0.01 58 1015.6
20260508134314 66 86 4.0 10.0 0.00 0.04 0.01 59 1015.7
20260508133855 65 56 6.0 11.0 0.00 0.04 0.01 62 1015.8
20260508133333 65 105 7.0 10.0 0.00 0.04 0.01 57 1015.8
20260508132829 65 94 5.0 9.0 0.00 0.04 0.01 62 1015.8
20260508132328 65 106 5.0 11.0 0.00 0.04 0.01 59 1015.8
20260508131854 65 126 8.0 11.0 0.00 0.04 0.01 58 1015.9
20260508131330 65 121 3.0 9.0 0.00 0.04 0.01 60 1015.9
20260508130827 65 25 4.0 8.0 0.00 0.04 0.01 67 1015.9
20260508130327 65 41 3.0 9.0 0.00 0.04 0.01 64 1016.0
20260508125823 64 83 5.0 9.0 0.00 0.04 0.01 62 1016.1
20260508125320 63 71 2.0 8.0 0.00 0.04 0.01 62 1016.1
20260508124815 64 96 4.0 11.0 0.00 0.04 0.01 61 1016.2
20260508124332 64 63 7.0 12.0 0.00 0.04 0.01 68 1016.2
20260508123827 65 107 10.0 12.0 0.00 0.04 0.01 60 1016.3
20260508123326 65 37 5.0 9.0 0.00 0.04 0.01 59 1016.2
20260508122823 65 144 3.0 10.0 0.00 0.04 0.01 60 1016.2
20260508122321 64 109 6.0 12.0 0.00 0.04 0.01 62 1016.3
20260508121939 64 165 4.0 12.0 0.00 0.04 0.01 63 1016.3
20260508121342 63 62 5.0 15.0 0.00 0.04 0.01 60 1016.3
20260508120817 64 140 9.0 15.0 0.00 0.04 0.01 63 1016.3
20260508120316 64 140 7.0 11.0 0.00 0.04 0.01 61 1016.3
20260508115832 63 121 5.0 10.0 0.00 0.04 0.01 65 1016.3
20260508115330 63 128 5.0 10.0 0.00 0.04 0.01 62 1016.4
20260508114826 64 107 6.0 10.0 0.00 0.04 0.01 62 1016.4
20260508114323 64 103 6.0 10.0 0.00 0.04 0.01 61 1016.5
20260508113838 64 27 3.0 10.0 0.00 0.04 0.01 62 1016.5
20260508113314 63 53 5.0 10.0 0.00 0.04 0.01 63 1016.5
20260508112831 63 160 4.0 9.0 0.00 0.04 0.01 67 1016.5
20260508112331 62 55 3.0 11.0 0.00 0.04 0.01 69 1016.5
20260508111827 62 105 7.0 11.0 0.00 0.04 0.01 64 1016.6
20260508111327 62 103 5.0 10.0 0.00 0.04 0.01 72 1016.7
20260508110822 60 73 7.0 9.0 0.00 0.04 0.01 69 1016.7
20260508110342 60 57 3.0 10.0 0.00 0.04 0.01 70 1016.7
20260508105818 61 55 5.0 12.0 0.00 0.04 0.01 69 1016.7
20260508105316 63 64 8.0 12.0 0.00 0.04 0.01 66 1016.7
20260508104831 63 147 6.0 11.0 0.00 0.04 0.01 68 1016.7
20260508104330 63 75 6.0 12.0 0.00 0.04 0.01 70 1016.7
20260508103845 63 89 7.0 12.0 0.00 0.04 0.01 73 1016.7
20260508103322 60 86 6.0 10.0 0.00 0.04 0.01 73 1016.7
20260508102818 60 53 5.0 10.0 0.00 0.04 0.01 72 1016.8
20260508102335 60 53 4.0 10.0 0.00 0.04 0.01 72 1016.8
20260508101827 60 90 7.0 9.0 0.00 0.04 0.01 69 1016.9
20260508101325 60 90 4.0 9.0 0.00 0.04 0.01 69 1016.9
20260508100822 59 53 5.0 10.0 0.00 0.04 0.01 71 1016.9
20260508100320 59 82 6.0 12.0 0.00 0.04 0.01 71 1016.9
20260508095816 60 101 5.0 12.0 0.00 0.04 0.01 70 1016.9
20260508095314 61 84 9.0 11.0 0.00 0.04 0.01 70 1016.8
20260508094829 61 57 4.0 12.0 0.00 0.04 0.01 72 1016.8
20260508094326 59 129 10.0 12.0 0.00 0.04 0.01 69 1016.8
20260508093821 61 82 4.0 11.0 0.00 0.04 0.01 72 1016.8
20260508093320 60 82 6.0 12.0 0.00 0.04 0.01 72 1016.8
20260508092816 61 97 7.0 12.0 0.00 0.04 0.01 71 1016.8
20260508092314 61 36 5.0 12.0 0.00 0.04 0.01 70 1016.7
20260508091827 61 112 3.0 7.0 0.00 0.04 0.01 72 1016.7
20260508091346 60 74 4.0 9.0 0.00 0.04 0.01 72 1016.7
20260508090821 61 70 5.0 11.0 0.00 0.04 0.01 73 1016.7
20260508090317 60 67 6.0 11.0 0.00 0.04 0.01 75 1016.8
20260508085832 60 61 6.0 9.0 0.00 0.04 0.01 72 1016.9
20260508085328 60 55 6.0 9.0 0.00 0.04 0.01 76 1016.8
20260508084844 59 96 3.0 7.0 0.00 0.04 0.01 77 1016.8
20260508084322 59 92 1.0 7.0 0.00 0.04 0.01 79 1016.9
20260508083818 59 71 2.0 8.0 0.00 0.04 0.01 75 1016.9
20260508083315 59 69 3.0 8.0 0.00 0.04 0.01 76 1016.9
20260508082832 59 56 4.0 7.0 0.00 0.04 0.01 77 1017.0
20260508082351 59 76 4.0 6.0 0.00 0.04 0.01 77 1017.0
20260508081825 59 55 3.0 6.0 0.00 0.04 0.01 78 1017.0
20260508081324 58 142 2.0 5.0 0.00 0.04 0.01 78 1017.0
20260508080819 58 56 3.0 5.0 0.00 0.04 0.01 77 1017.0
20260508080314 58 39 3.0 9.0 0.00 0.04 0.01 79 1017.0
20260508075833 58 71 4.0 9.0 0.00 0.04 0.01 81 1017.0
20260508075330 57 57 5.0 8.0 0.00 0.04 0.01 79 1016.9
20260508074826 57 42 4.0 6.0 0.00 0.04 0.01 80 1016.9
20260508074321 57 90 3.0 6.0 0.00 0.04 0.01 81 1016.9
20260508073817 57 42 4.0 6.0 0.00 0.04 0.01 81 1016.9
20260508073314 56 50 3.0 6.0 0.00 0.04 0.01 82 1016.9
20260508072826 56 61 4.0 6.0 0.00 0.04 0.01 81 1016.9
20260508072323 55 60 3.0 5.0 0.00 0.04 0.01 83 1016.9
20260508071838 55 82 2.0 4.0 0.00 0.04 0.01 84 1016.9
20260508071354 54 59 3.0 4.0 0.00 0.04 0.01 85 1016.9
20260508070846 54 57 3.0 5.0 0.00 0.04 0.01 85 1016.9
20260508070321 54 38 3.0 6.0 0.00 0.04 0.01 88 1016.9
20260508065837 53 74 3.0 6.0 0.00 0.04 0.01 89 1016.9
20260508065332 53 55 3.0 5.0 0.00 0.04 0.01 91 1016.9
20260508064828 52 53 2.0 4.0 0.00 0.04 0.01 93 1016.8
20260508064344 51 77 3.0 4.0 0.00 0.04 0.01 94 1016.8
20260508063839 50 60 0.0 2.0 0.00 0.04 0.01 95 1016.8
20260508063316 49 61 1.0 3.0 0.00 0.04 0.01 95 1016.7
20260508062859 49 63 1.0 3.0 0.00 0.04 0.01 95 1016.7
20260508062333 48 64 1.0 3.0 0.00 0.04 0.01 95 1016.7
20260508061847 47 78 0.0 1.0 0.00 0.04 0.01 95 1016.7
20260508061321 46 79 0.0 1.0 0.00 0.04 0.01 95 1016.7
20260508060836 46 80 0.0 1.0 0.00 0.04 0.01 95 1016.7
20260508060332 45 80 0.0 1.0 0.00 0.04 0.01 95 1016.6
20260508055828 45 80 0.0 1.0 0.00 0.04 0.01 95 1016.6
20260508055326 44 80 0.0 1.0 0.00 0.04 0.01 95 1016.6
20260508054840 43 79 0.0 1.0 0.00 0.04 0.01 95 1016.6
20260508054356 43 78 0.0 2.0 0.00 0.04 0.01 95 1016.6
20260508053828 42 78 1.0 2.0 0.00 0.04 0.01 95 1016.6
20260508053326 42 77 0.0 2.0 0.00 0.04 0.01 95 1016.6
20260508052821 42 77 1.0 2.0 0.00 0.04 0.01 95 1016.6
20260508052339 41 77 1.0 2.0 0.00 0.04 0.01 95 1016.5
20260508051834 41 77 1.0 3.0 0.00 0.04 0.01 95 1016.5
20260508051351 41 77 2.0 3.0 0.00 0.04 0.01 95 1016.5
20260508050825 40 77 1.0 2.0 0.00 0.04 0.01 95 1016.5
20260508050325 40 77 1.0 2.0 0.00 0.04 0.01 95 1016.4
20260508045817 40 77 0.0 1.0 0.00 0.04 0.01 95 1016.4
20260508045314 40 77 0.0 2.0 0.00 0.04 0.01 95 1016.4
20260508044829 40 77 0.0 2.0 0.04 0.04 0.01 94 1016.4
20260508044327 40 77 1.0 2.0 0.04 0.04 0.01 94 1016.3
20260508043821 40 77 1.0 2.0 0.04 0.04 0.01 94 1016.2
20260508043319 40 77 2.0 2.0 0.04 0.04 0.01 94 1016.3
20260508042842 39 77 2.0 2.0 0.04 0.04 0.01 94 1016.3
20260508042339 39 77 1.0 3.0 0.04 0.04 0.01 94 1016.3
20260508041833 40 77 2.0 3.0 0.04 0.04 0.01 95 1016.4
20260508041331 40 76 1.0 3.0 0.04 0.04 0.01 95 1016.4
20260508040848 40 76 1.0 3.0 0.04 0.04 0.01 95 1016.3
20260508040325 40 76 2.0 3.0 0.04 0.04 0.01 95 1016.4
20260508035821 39 76 1.0 2.0 0.04 0.04 0.01 94 1016.4
20260508035337 39 76 1.0 2.0 0.04 0.04 0.01 94 1016.4
20260508034828 40 76 1.0 2.0 0.00 0.00 0.00 94 1016.4
20260508034325 40 76 1.0 2.0 0.00 0.00 0.00 94 1016.3
20260508033823 40 76 1.0 2.0 0.00 0.00 0.00 94 1016.3
20260508033341 40 76 0.0 2.0 0.00 0.00 0.00 94 1016.3
20260508032834 40 76 1.0 2.0 0.00 0.00 0.00 94 1016.3
20260508032331 40 76 1.0 3.0 0.00 0.00 0.00 94 1016.2
20260508031829 40 76 2.0 3.0 0.00 0.00 0.00 94 1016.2
20260508031326 40 76 1.0 3.0 0.00 0.00 0.00 94 1016.2
20260508030823 40 76 2.0 3.0 0.00 0.00 0.00 94 1016.3
20260508030322 40 76 1.0 3.0 0.00 0.00 0.00 94 1016.2
20260508025839 40 76 2.0 3.0 0.00 0.00 0.00 94 1016.2
20260508025337 41 76 2.0 3.0 0.00 0.00 0.00 94 1016.2
20260508024854 41 76 2.0 3.0 0.00 0.00 0.00 94 1016.2
20260508024332 41 76 2.0 3.0 0.00 0.00 0.00 94 1016.3
20260508023850 41 76 2.0 2.0 0.00 0.00 0.00 94 1016.2
20260508023328 41 76 1.0 2.0 0.00 0.00 0.00 94 1016.3
20260508022826 41 76 0.0 1.0 0.00 0.00 0.00 94 1016.3
20260508022327 41 75 0.0 2.0 0.00 0.00 0.00 95 1016.3
20260508021823 41 75 1.0 2.0 0.00 0.00 0.00 94 1016.4